Hourly Data Report for September 23, 2004

TORONTO CITY
ONTARIO

43°40'00.000" N
79°24'00.000" W
112.50 m
6158355
71508
XTO

Download Data

Hourly Data (September 2004)
Hourly Data Report for September 23, 2004
TIME
LST
Temp Definition
°C
Dew Point Definition
°C
Rel Hum Definition
%
Precip. Amount Definition
mm

Wind Dir Definition
10's deg

Wind Spd Definition
km/h
Visibility Definition
km
Stn Press Definition
kPa
Hmdx Definition


Wind Chill Definition


Weather Definition


00:00 19.0 14.6 76   LegendMM LegendMM LegendMM 100.93     LegendNANA
01:00 18.4 14.9 80   LegendMM LegendMM LegendMM 100.97     LegendNANA
02:00 17.6 14.3 81   LegendMM LegendMM LegendMM 100.97     LegendNANA
03:00 17.7 13.7 77   LegendMM LegendMM LegendMM 101.00     LegendNANA
04:00 16.3 13.4 83   LegendMM LegendMM LegendMM 101.02     LegendNANA
05:00 16.2 13.7 85   LegendMM LegendMM LegendMM 101.04     LegendNANA
06:00 16.2 13.2 82   LegendMM LegendMM LegendMM 101.07     LegendNANA
07:00 17.1 13.6 80   LegendMM LegendMM LegendMM 101.09     LegendNANA
08:00 20.3 14.9 71   LegendMM LegendMM LegendMM 101.12     LegendNANA
09:00 22.9 11.6 49   LegendMM LegendMM LegendMM 101.15 25   LegendNANA
10:00 24.8 14.2 52   LegendMM LegendMM LegendMM 101.17 28   LegendNANA
11:00 26.4 10.8 38   LegendMM LegendMM LegendMM 101.16 28   LegendNANA
12:00 27.1 11.0 37   LegendMM LegendMM LegendMM 101.12 29   LegendNANA
13:00 27.7 10.0 33   LegendMM LegendMM LegendMM 101.08 29   LegendNANA
14:00 27.7 11.3 36   LegendMM LegendMM LegendMM 101.00 30   LegendNANA
15:00 26.6 10.8 37   LegendMM LegendMM LegendMM 100.97 28   LegendNANA
16:00 25.7 11.2 40   LegendMM LegendMM LegendMM 100.93 28   LegendNANA
17:00 24.7 11.8 44   LegendMM LegendMM LegendMM 100.90 27   LegendNANA
18:00 22.9 13.7 56   LegendMM LegendMM LegendMM 100.90 26   LegendNANA
19:00 21.5 14.9 66   LegendMM LegendMM LegendMM 100.93 25   LegendNANA
20:00 20.6 15.4 72   LegendMM LegendMM LegendMM 100.97 25   LegendNANA
21:00 20.8 15.8 73   LegendMM LegendMM LegendMM 100.96 25   LegendNANA
22:00 20.0 16.9 82   LegendMM LegendMM LegendMM 100.94 25   LegendNANA
23:00 18.5 16.4 88   LegendMM LegendMM LegendMM 100.93     LegendNANA

Notes on Data Quality.

Legend

  • E = Estimated
  • M = Missing
  • NA = Not Available*
  • [empty] = Indicates an unobserved value
Date modified: